#timestamp,LO_Frequency,Hit,StdDev 
1553608815.1,286046998.4,N
1553608835.9,286046999.5,N
1553608855.7,286046995.0,Y
1553608875.5,286046995.1,P
1553608895.4,286046995.7,N
1553608915.2,286046996.3,N
1553608935.1,286046997.9,N
1553608936.0,286046997.9,N
1553608955.8,286046998.0,N
1553608975.6,286046996.9,N
1553608995.5,286046997.1,N
1553609015.3,286046997.4,N
1553609035.1,286046998.0,N
1553609055.9,286046995.3,Y
1553609075.7,286046999.0,P
1553609095.6,286046998.5,N
1553609115.4,286046998.5,N
1553609135.2,286046998.7,N
1553609155.1,286047001.0,N
1553609156.0,286047001.0,N
1553609175.8,286047001.1,N
1553609195.6,286047001.2,N
1553609215.5,286046999.0,N
1553609235.3,286046996.6,N
1553609255.2,286046999.6,N
1553609275.9,286046998.1,N
1553609295.7,286046998.5,N
1553609315.6,286046998.6,N
1553609335.4,286046999.4,N
1553609355.2,286046998.2,N
1553609375.1,286046996.6,N
1553609376.0,286046996.6,N
1553609395.8,286046997.4,N
1553609415.7,286046997.7,N
1553609435.5,286046997.9,N
1553609455.3,286046997.9,N
1553609475.2,286046997.6,N
1553609495.9,286046996.2,N
1553609515.7,286046997.5,N
1553609535.6,286046995.6,Y
1553609555.4,286046997.1,P
1553609575.3,286046997.5,P
1553609595.1,286046997.7,P
1553609596.0,286046997.7,Y
1553609615.8,286047000.0,P
1553609635.7,286046998.4,N
1553609655.5,286046998.5,N
1553609675.3,286046998.6,N
1553609695.2,286047001.3,N
1553609715.0,286046999.8,N
1553609715.9,286046999.8,N
1553609735.8,286047000.2,N
1553609755.6,286047000.8,N
1553609775.4,286046998.6,N
1553609795.3,286046999.1,N
1553609815.1,286046997.4,N
1553609835.9,286046996.8,N
1553609855.7,286046997.2,N
1553609875.5,286046996.8,N
1553609895.4,286046999.2,N
1553609915.2,286046995.1,Y
1553609935.0,286046997.3,P
1553609935.9,286046997.3,P
1553609955.8,286046997.5,P
1553609975.6,286046996.5,Y
1553609995.5,286046998.7,P
1553610015.3,286046998.9,N
1553610035.1,286046998.7,N
1553610055.9,286046999.3,N
1553610075.7,286046998.1,Y
1553610095.5,286046999.8,P
1553610115.4,286047000.2,N
1553610135.2,286047000.3,N
1553610155.1,286047000.3,N
1553610156.0,286047000.3,N
1553610175.8,286047000.0,N
1553610195.6,286047000.9,N
1553610215.5,286047001.2,N
1553610235.3,286047000.7,N
1553610255.2,286047000.3,N
1553610275.9,286046999.9,N
1553610295.7,286047002.1,Y
1553610315.6,286047004.3,P
1553610335.4,286047002.2,N
1553610355.2,286047000.0,N
1553610375.1,286047000.2,N
1553610376.0,286047000.2,N
1553610395.8,286046999.9,N
1553610415.7,286046999.7,N
1553610435.5,286047000.1,N
1553610455.3,286046998.9,N
1553610475.2,286046999.9,N
1553610495.0,286046998.5,N
1553610495.9,286046998.5,N
1553610515.8,286047000.8,N
1553610535.6,286046998.8,N
1553610555.4,286046998.2,N
1553610575.3,286046998.3,N
1553610595.1,286046999.5,N
1553610615.8,286046999.5,N
1553610635.7,286046998.7,N
1553610655.5,286046999.3,N
1553610675.3,286046998.7,N
1553610695.2,286047001.2,N
1553610715.0,286047000.4,N
1553610715.9,286047000.4,N
1553610735.8,286047000.4,N
1553610755.6,286046998.6,N
1553610775.4,286047001.2,N
1553610795.3,286046998.8,N
1553610815.1,286046998.4,N
1553610835.9,286047000.8,N
1553610855.7,286047001.2,N
1553610875.5,286046998.2,N
1553610895.4,286047002.3,N
1553610915.2,286047000.2,N
1553610935.1,286047000.5,N
1553610936.0,286047000.5,N
1553610955.8,286047000.3,N
1553610975.6,286046999.8,N
1553610995.5,286047000.9,N
1553611015.3,286047000.5,N
1553611035.1,286046999.7,N
1553611055.9,286047002.8,N
1553611075.7,286047002.3,N
1553611095.6,286047000.2,N
1553611115.4,286047002.7,N
1553611135.2,286047002.5,N
1553611155.1,286047002.6,N
1553611156.0,286047002.6,N
1553611175.8,286047002.1,N
1553611195.6,286047002.0,N
1553611215.5,286047004.0,N
1553611235.3,286047003.8,N
1553611255.2,286047003.6,N
1553611275.9,286047005.4,Y
1553611295.7,286047006.0,P
1553611315.6,286047005.4,N
1553611335.4,286047004.9,N
1553611355.2,286047004.9,N
1553611375.1,286047005.5,Y
1553611406.0,286046999.9,E
1553611415.0,286046999.7,N
1553611415.9,286046999.7,P
1553611435.8,286047000.3,P
1553611455.6,286047000.7,N
1553611475.4,286047001.0,N
1553611495.3,286047000.7,N
1553611515.1,286047001.2,N
1553611535.9,286047000.9,N
1553611555.7,286047000.7,N
1553611575.5,286047001.2,N
1553611595.4,286046999.8,N
1553611615.2,286047002.8,Y
1553611635.0,286047000.4,P
1553611635.9,286047000.4,P
1553611655.8,286047000.6,P
1553611675.6,286046999.8,N
1553611695.5,286047000.3,N
1553611715.3,286047000.6,N
1553611735.1,286047000.5,N
1553611755.9,286047000.6,N
1553611775.7,286047001.2,Y
1553611795.5,286047001.2,P
1553611815.4,286047000.3,N
1553611835.2,286047000.0,N
1553611855.1,286047000.0,N
1553611856.0,286047000.0,N
1553611875.8,286047001.1,N
1553611895.6,286046999.5,N
1553611915.5,286047000.8,N
1553611935.3,286047001.2,N
1553611955.1,286047001.0,N
1553611975.9,286046998.7,N
1553611995.7,286047000.8,N
1553612015.6,286046999.0,N
1553612035.4,286046998.1,N
1553612055.2,286047000.9,N
1553612075.1,286046998.6,N
1553612076.0,286046998.6,N
1553612095.8,286047001.2,N
1553612115.6,286047002.0,N
1553612135.5,286047003.7,Y
1553612155.3,286047002.6,P
1553612175.2,286046999.7,N
1553612195.9,286047000.4,N
1553612215.7,286046999.7,N
1553612235.6,286047000.9,N
1553612255.4,286047002.3,N
1553612275.2,286047000.2,N
1553612295.1,286047002.5,N
1553612296.0,286047002.5,N
1553612315.8,286047001.9,N
1553612335.7,286047002.1,N
1553612355.5,286047002.1,N
1553612375.3,286047001.6,N
1553612395.2,286047002.8,N
